Time,TemperatureF,DewpointF,PressureIn,WindDirection,WindDirectionDegrees,WindSpeedMPH,WindSpeedGustMPH,Humidity,HourlyPrecipIn,Conditions,Clouds,dailyrainin,SoftwareType,DateUTC
2013-05-28 00:02:00,57.0,-99.9,-100.00,ESE,107,16.0,-999.0,0,-99.99,,,-99.99,,2013-05-28 05:02:00,
2013-05-28 00:12:00,57.0,-99.9,-100.00,ESE,104,19.0,-999.0,0,-99.99,,,-99.99,,2013-05-28 05:12:00,
2013-05-28 00:22:00,57.0,-99.9,-100.00,ESE,104,13.0,-999.0,0,-99.99,,,-99.99,,2013-05-28 05:22:00,
2013-05-28 00:33:00,57.0,-99.9,-100.00,East,92,9.0,-999.0,0,-99.99,,,-99.99,,2013-05-28 05:33:00,
2013-05-28 00:43:00,56.0,-99.9,-100.00,ESE,111,18.0,-999.0,0,-99.99,,,-99.99,,2013-05-28 05:43:00,
2013-05-28 00:53:00,56.0,-99.9,-100.00,ESE,109,13.0,-999.0,0,-99.99,,,-99.99,,2013-05-28 05:53:00,
2013-05-28 01:02:00,56.0,-99.9,-100.00,ESE,121,13.0,-999.0,0,-99.99,,,-99.99,,2013-05-28 06:02:00,
2013-05-28 01:12:00,56.0,-99.9,-100.00,ESE,119,11.0,-999.0,0,-99.99,,,-99.99,,2013-05-28 06:12:00,
2013-05-28 01:22:00,56.0,-99.9,-100.00,ESE,102,10.0,-999.0,0,-99.99,,,-99.99,,2013-05-28 06:22:00,
2013-05-28 01:32:00,56.0,-99.9,-100.00,ENE,76,11.0,-999.0,0,-99.99,,,-99.99,,2013-05-28 06:32:00,
2013-05-28 01:42:00,56.0,-99.9,-100.00,ESE,106,10.0,-999.0,0,-99.99,,,-99.99,,2013-05-28 06:42:00,
2013-05-28 01:52:00,56.0,-99.9,-100.00,ESE,118,14.0,-999.0,0,-99.99,,,-99.99,,2013-05-28 06:52:00,
2013-05-28 02:02:00,56.0,-99.9,-100.00,ESE,117,11.0,-999.0,0,-99.99,,,-99.99,,2013-05-28 07:02:00,
2013-05-28 02:11:00,56.0,-99.9,-100.00,ESE,104,10.0,-999.0,0,-99.99,,,-99.99,,2013-05-28 07:11:00,
2013-05-28 02:22:00,56.0,-99.9,-100.00,SE,136,12.0,-999.0,0,-99.99,,,-99.99,,2013-05-28 07:22:00,
2013-05-28 02:32:00,56.0,-99.9,-100.00,SSE,164,10.0,-999.0,0,-99.99,,,-99.99,,2013-05-28 07:32:00,
2013-05-28 02:42:00,56.0,-99.9,-100.00,SSE,164,6.0,-999.0,0,-99.99,,,-99.99,,2013-05-28 07:42:00,
2013-05-28 02:52:00,56.0,-99.9,-100.00,ESE,111,2.0,-999.0,0,-99.99,,,-99.99,,2013-05-28 07:52:00,
2013-05-28 03:02:00,56.0,-99.9,-100.00,North,-999,2.0,-999.0,0,-99.99,,,-99.99,,2013-05-28 08:02:00,
2013-05-28 03:12:00,56.0,-99.9,-100.00,WNW,287,4.0,-999.0,0,-99.99,,,-99.99,,2013-05-28 08:12:00,
2013-05-28 03:22:00,56.0,-99.9,-100.00,NW,322,5.0,-999.0,0,-99.99,,,-99.99,,2013-05-28 08:22:00,
2013-05-28 03:32:00,56.0,-99.9,-100.00,WNW,294,2.0,-999.0,0,-99.99,,,-99.99,,2013-05-28 08:32:00,
2013-05-28 03:42:00,56.0,-99.9,-100.00,WSW,251,3.0,-999.0,0,-99.99,,,-99.99,,2013-05-28 08:42:00,
2013-05-28 03:52:00,56.0,-99.9,-100.00,WNW,295,5.0,-999.0,0,-99.99,,,-99.99,,2013-05-28 08:52:00,
2013-05-28 04:01:00,56.0,-99.9,-100.00,NW,324,5.0,-999.0,0,-99.99,,,-99.99,,2013-05-28 09:01:00,
2013-05-28 04:12:00,56.0,-99.9,-100.00,NW,310,4.0,-999.0,0,-99.99,,,-99.99,,2013-05-28 09:12:00,
2013-05-28 04:22:00,56.0,-99.9,-100.00,NW,314,5.0,-999.0,0,-99.99,,,-99.99,,2013-05-28 09:22:00,
2013-05-28 04:33:00,56.0,-99.9,-100.00,NNW,337,6.0,-999.0,0,-99.99,,,-99.99,,2013-05-28 09:33:00,
2013-05-28 04:43:00,56.0,-99.9,-100.00,East,95,12.0,-999.0,0,-99.99,,,-99.99,,2013-05-28 09:43:00,
2013-05-28 04:54:00,56.0,-99.9,-100.00,North,-999,15.0,-999.0,0,-99.99,,,-99.99,,2013-05-28 09:54:00,
2013-05-28 05:03:00,56.0,-99.9,-100.00,North,8,11.0,-999.0,0,-99.99,,,-99.99,,2013-05-28 10:03:00,
2013-05-28 05:12:00,56.0,-99.9,-100.00,East,94,11.0,-999.0,0,-99.99,,,-99.99,,2013-05-28 10:12:00,
2013-05-28 05:23:00,56.0,-99.9,-100.00,NNE,23,10.0,-999.0,0,-99.99,,,-99.99,,2013-05-28 10:23:00,
2013-05-28 05:33:00,56.0,-99.9,-100.00,NNE,17,13.0,-999.0,0,-99.99,,,-99.99,,2013-05-28 10:33:00,
2013-05-28 05:43:00,56.0,-99.9,-100.00,NNE,30,8.0,-999.0,0,-99.99,,,-99.99,,2013-05-28 10:43:00,
2013-05-28 05:53:00,56.0,-99.9,-100.00,East,90,4.0,-999.0,0,-99.99,,,-99.99,,2013-05-28 10:53:00,
2013-05-28 06:03:00,56.0,-99.9,-100.00,ENE,77,6.0,-999.0,0,-99.99,,,-99.99,,2013-05-28 11:03:00,
2013-05-28 06:12:00,56.0,-99.9,-100.00,ENE,76,12.0,-999.0,0,-99.99,,,-99.99,,2013-05-28 11:12:00,
2013-05-28 06:23:00,56.0,-99.9,-100.00,ENE,76,9.0,-999.0,0,-99.99,,,-99.99,,2013-05-28 11:23:00,
2013-05-28 06:32:00,56.0,-99.9,-100.00,ENE,69,13.0,-999.0,0,-99.99,,,-99.99,,2013-05-28 11:32:00,
2013-05-28 06:42:00,56.0,-99.9,-100.00,East,90,11.0,-999.0,0,-99.99,,,-99.99,,2013-05-28 11:42:00,
2013-05-28 06:52:00,56.0,-99.9,-100.00,ENE,69,10.0,-999.0,0,-99.99,,,-99.99,,2013-05-28 11:52:00,
2013-05-28 07:02:00,56.0,-99.9,-100.00,East,86,17.0,-999.0,0,-99.99,,,-99.99,,2013-05-28 12:02:00,
2013-05-28 07:11:00,56.0,-99.9,-100.00,ESE,115,18.0,-999.0,0,-99.99,,,-99.99,,2013-05-28 12:11:00,
2013-05-28 07:22:00,56.0,-99.9,-100.00,East,101,12.0,-999.0,0,-99.99,,,-99.99,,2013-05-28 12:22:00,
2013-05-28 07:32:00,56.0,-99.9,-100.00,East,84,13.0,-999.0,0,-99.99,,,-99.99,,2013-05-28 12:32:00,
2013-05-28 07:42:00,56.0,-99.9,-100.00,ENE,68,9.0,-999.0,0,-99.99,,,-99.99,,2013-05-28 12:42:00,
2013-05-28 07:52:00,56.0,-99.9,-100.00,ENE,68,9.0,-999.0,0,-99.99,,,-99.99,,2013-05-28 12:52:00,
2013-05-28 08:01:00,56.0,-99.9,-100.00,ENE,69,12.0,-999.0,0,-99.99,,,-99.99,,2013-05-28 13:01:00,
2013-05-28 08:11:00,56.0,-99.9,-100.00,ESE,115,16.0,-999.0,0,-99.99,,,-99.99,,2013-05-28 13:11:00,
2013-05-28 08:22:00,56.0,-99.9,-100.00,SE,135,12.0,-999.0,0,-99.99,,,-99.99,,2013-05-28 13:22:00,
2013-05-28 08:32:00,56.0,-99.9,-100.00,SSE,156,10.0,-999.0,0,-99.99,,,-99.99,,2013-05-28 13:32:00,
2013-05-28 08:42:00,57.0,-99.9,-100.00,SSW,204,10.0,-999.0,0,-99.99,,,-99.99,,2013-05-28 13:42:00,
2013-05-28 08:52:00,57.0,-99.9,-100.00,SSW,196,7.0,-999.0,0,-99.99,,,-99.99,,2013-05-28 13:52:00,
2013-05-28 09:02:00,57.0,-99.9,-100.00,SSW,200,7.0,-999.0,0,-99.99,,,-99.99,,2013-05-28 14:02:00,
2013-05-28 09:12:00,58.0,-99.9,-100.00,SW,232,4.0,-999.0,0,-99.99,,,-99.99,,2013-05-28 14:12:00,
2013-05-28 09:22:00,58.0,-99.9,-100.00,WSW,237,4.0,-999.0,0,-99.99,,,-99.99,,2013-05-28 14:22:00,
2013-05-28 09:32:00,58.0,-99.9,-100.00,West,264,6.0,-999.0,0,-99.99,,,-99.99,,2013-05-28 14:32:00,
2013-05-28 09:42:00,58.0,-99.9,-100.00,West,259,4.0,-999.0,0,-99.99,,,-99.99,,2013-05-28 14:42:00,
2013-05-28 09:52:00,58.0,-99.9,-100.00,NNW,332,3.0,-999.0,0,-99.99,,,-99.99,,2013-05-28 14:52:00,
2013-05-28 10:02:00,58.0,-99.9,-100.00,WNW,301,4.0,-999.0,0,-99.99,,,-99.99,,2013-05-28 15:02:00,
2013-05-28 10:11:00,58.0,-99.9,-100.00,NW,310,2.0,-999.0,0,-99.99,,,-99.99,,2013-05-28 15:11:00,
2013-05-28 10:22:00,58.0,-99.9,-100.00,NW,326,9.0,-999.0,0,-99.99,,,-99.99,,2013-05-28 15:22:00,
2013-05-28 10:33:00,59.0,-99.9,-100.00,NW,305,8.0,-999.0,0,-99.99,,,-99.99,,2013-05-28 15:33:00,
2013-05-28 10:43:00,59.0,-99.9,-100.00,NW,319,5.0,-999.0,0,-99.99,,,-99.99,,2013-05-28 15:43:00,
2013-05-28 10:53:00,60.0,-99.9,-100.00,NNW,328,6.0,-999.0,0,-99.99,,,-99.99,,2013-05-28 15:53:00,
2013-05-28 11:03:00,60.0,-99.9,-100.00,NW,314,8.0,-999.0,0,-99.99,,,-99.99,,2013-05-28 16:03:00,
2013-05-28 11:13:00,60.0,-99.9,-100.00,WNW,282,5.0,-999.0,0,-99.99,,,-99.99,,2013-05-28 16:13:00,
2013-05-28 11:23:00,60.0,-99.9,-100.00,WNW,282,5.0,-999.0,0,-99.99,,,-99.99,,2013-05-28 16:23:00,
2013-05-28 11:33:00,60.0,-99.9,-100.00,West,272,8.0,-999.0,0,-99.99,,,-99.99,,2013-05-28 16:33:00,
2013-05-28 11:42:00,60.0,-99.9,-100.00,WSW,253,5.0,-999.0,0,-99.99,,,-99.99,,2013-05-28 16:42:00,
2013-05-28 11:53:00,60.0,-99.9,-100.00,WSW,256,9.0,-999.0,0,-99.99,,,-99.99,,2013-05-28 16:53:00,
2013-05-28 12:02:00,60.0,-99.9,-100.00,WNW,291,7.0,-999.0,0,-99.99,,,-99.99,,2013-05-28 17:02:00,
2013-05-28 12:12:00,60.0,-99.9,-100.00,NW,313,8.0,-999.0,0,-99.99,,,-99.99,,2013-05-28 17:12:00,
2013-05-28 12:22:00,61.0,-99.9,-100.00,NW,309,6.0,-999.0,0,-99.99,,,-99.99,,2013-05-28 17:22:00,
2013-05-28 12:32:00,61.0,-99.9,-100.00,NNW,338,6.0,-999.0,0,-99.99,,,-99.99,,2013-05-28 17:32:00,
2013-05-28 12:42:00,61.0,-99.9,-100.00,NNW,339,4.0,-999.0,0,-99.99,,,-99.99,,2013-05-28 17:42:00,
2013-05-28 12:52:00,61.0,-99.9,-100.00,WNW,301,7.0,-999.0,0,-99.99,,,-99.99,,2013-05-28 17:52:00,
2013-05-28 13:01:00,62.0,-99.9,-100.00,NW,312,6.0,-999.0,0,-99.99,,,-99.99,,2013-05-28 18:01:00,
2013-05-28 13:11:00,61.0,-99.9,-100.00,NW,314,5.0,-999.0,0,-99.99,,,-99.99,,2013-05-28 18:11:00,
2013-05-28 13:22:00,62.0,-99.9,-100.00,North,-999,5.0,-999.0,0,-99.99,,,-99.99,,2013-05-28 18:22:00,
2013-05-28 13:32:00,62.0,-99.9,-100.00,South,173,5.0,-999.0,0,-99.99,,,-99.99,,2013-05-28 18:32:00,
2013-05-28 13:43:00,62.0,-99.9,-100.00,North,9,6.0,-999.0,0,-99.99,,,-99.99,,2013-05-28 18:43:00,
2013-05-28 13:52:00,62.0,-99.9,-100.00,North,9,6.0,-999.0,0,-99.99,,,-99.99,,2013-05-28 18:52:00,
2013-05-28 14:01:00,64.0,-99.9,-100.00,NNW,333,2.0,-999.0,0,-99.99,,,-99.99,,2013-05-28 19:01:00,
2013-05-28 14:11:00,65.0,-99.9,-100.00,NW,313,2.0,-999.0,0,-99.99,,,-99.99,,2013-05-28 19:11:00,
2013-05-28 14:22:00,66.0,-99.9,-100.00,NW,306,3.0,-999.0,0,-99.99,,,-99.99,,2013-05-28 19:22:00,
2013-05-28 14:32:00,65.0,-99.9,-100.00,North,-999,4.0,-999.0,0,-99.99,,,-99.99,,2013-05-28 19:32:00,
2013-05-28 14:42:00,66.0,-99.9,-100.00,NNW,340,7.0,-999.0,0,-99.99,,,-99.99,,2013-05-28 19:42:00,
2013-05-28 14:52:00,67.0,-99.9,-100.00,East,90,9.0,-999.0,0,-99.99,,,-99.99,,2013-05-28 19:52:00,
2013-05-28 15:02:00,67.0,-99.9,-100.00,WSW,258,3.0,-999.0,0,-99.99,,,-99.99,,2013-05-28 20:02:00,
2013-05-28 15:11:00,68.0,-99.9,-100.00,WNW,301,3.0,-999.0,0,-99.99,,,-99.99,,2013-05-28 20:11:00,
2013-05-28 15:22:00,68.0,-99.9,-100.00,NNW,331,5.0,-999.0,0,-99.99,,,-99.99,,2013-05-28 20:22:00,
2013-05-28 15:33:00,69.0,-99.9,-100.00,North,-999,6.0,-999.0,0,-99.99,,,-99.99,,2013-05-28 20:33:00,
2013-05-28 15:42:00,69.0,-99.9,-100.00,NNE,22,1.0,-999.0,0,-99.99,,,-99.99,,2013-05-28 20:42:00,
2013-05-28 15:52:00,70.0,-99.9,-100.00,West,280,4.0,-999.0,0,-99.99,,,-99.99,,2013-05-28 20:52:00,
2013-05-28 16:02:00,71.0,-99.9,-100.00,WNW,282,6.0,-999.0,0,-99.99,,,-99.99,,2013-05-28 21:02:00,
2013-05-28 16:11:00,70.0,-99.9,-100.00,NNE,17,6.0,-999.0,0,-99.99,,,-99.99,,2013-05-28 21:11:00,
2013-05-28 16:22:00,71.0,-99.9,-100.00,West,280,2.0,-999.0,0,-99.99,,,-99.99,,2013-05-28 21:22:00,
2013-05-28 16:33:00,72.0,-99.9,-100.00,NNE,15,2.0,-999.0,0,-99.99,,,-99.99,,2013-05-28 21:33:00,
2013-05-28 16:43:00,73.0,-99.9,-100.00,North,0,0.0,-999.0,0,-99.99,,,-99.99,,2013-05-28 21:43:00,
2013-05-28 16:53:00,72.0,-99.9,-100.00,NW,325,1.0,-999.0,0,-99.99,,,-99.99,,2013-05-28 21:53:00,
2013-05-28 17:02:00,72.0,-99.9,-100.00,North,0,0.0,-999.0,0,-99.99,,,-99.99,,2013-05-28 22:02:00,
2013-05-28 17:13:00,72.0,-99.9,-100.00,SW,214,3.0,-999.0,0,-99.99,,,-99.99,,2013-05-28 22:13:00,
2013-05-28 17:22:00,73.0,-99.9,-100.00,West,281,1.0,-999.0,0,-99.99,,,-99.99,,2013-05-28 22:22:00,
2013-05-28 17:33:00,72.0,-99.9,-100.00,SSE,166,4.0,-999.0,0,-99.99,,,-99.99,,2013-05-28 22:33:00,
2013-05-28 17:42:00,74.0,-99.9,-100.00,ESE,120,3.0,-999.0,0,-99.99,,,-99.99,,2013-05-28 22:42:00,
2013-05-28 17:52:00,73.0,-99.9,-100.00,SE,142,6.0,-999.0,0,-99.99,,,-99.99,,2013-05-28 22:52:00,
2013-05-28 18:02:00,72.0,-99.9,-100.00,East,87,4.0,-999.0,0,-99.99,,,-99.99,,2013-05-28 23:02:00,
2013-05-28 18:12:00,74.0,-99.9,-100.00,ESE,106,2.0,-999.0,0,-99.99,,,-99.99,,2013-05-28 23:12:00,
2013-05-28 18:22:00,74.0,-99.9,-100.00,SSE,154,5.0,-999.0,0,-99.99,,,-99.99,,2013-05-28 23:22:00,
2013-05-28 18:32:00,74.0,-99.9,-100.00,ESE,104,2.0,-999.0,0,-99.99,,,-99.99,,2013-05-28 23:32:00,
2013-05-28 18:42:00,74.0,-99.9,-100.00,SE,124,3.0,-999.0,0,-99.99,,,-99.99,,2013-05-28 23:42:00,
2013-05-28 18:52:00,74.0,-99.9,-100.00,ENE,65,4.0,-999.0,0,-99.99,,,-99.99,,2013-05-28 23:52:00,
2013-05-28 19:02:00,73.0,-99.9,-100.00,South,175,2.0,-999.0,0,-99.99,,,-99.99,,2013-05-29 00:02:00,
2013-05-28 19:11:00,75.0,-99.9,-100.00,SSE,154,2.0,-999.0,0,-99.99,,,-99.99,,2013-05-29 00:11:00,
2013-05-28 19:22:00,73.0,-99.9,-100.00,South,180,8.0,-999.0,0,-99.99,,,-99.99,,2013-05-29 00:22:00,
2013-05-28 19:32:00,73.0,-99.9,-100.00,South,180,8.0,-999.0,0,-99.99,,,-99.99,,2013-05-29 00:32:00,
2013-05-28 19:42:00,72.0,-99.9,-100.00,SSE,149,5.0,-999.0,0,-99.99,,,-99.99,,2013-05-29 00:42:00,
2013-05-28 19:52:00,72.0,-99.9,-100.00,SSE,164,8.0,-999.0,0,-99.99,,,-99.99,,2013-05-29 00:52:00,
2013-05-28 20:01:00,72.0,-99.9,-100.00,SE,124,3.0,-999.0,0,-99.99,,,-99.99,,2013-05-29 01:01:00,
2013-05-28 20:11:00,72.0,-99.9,-100.00,SE,140,5.0,-999.0,0,-99.99,,,-99.99,,2013-05-29 01:11:00,
2013-05-28 20:22:00,72.0,-99.9,-100.00,SE,131,4.0,-999.0,0,-99.99,,,-99.99,,2013-05-29 01:22:00,
2013-05-28 20:32:00,70.0,-99.9,-100.00,South,178,5.0,-999.0,0,-99.99,,,-99.99,,2013-05-29 01:32:00,
2013-05-28 20:42:00,69.0,-99.9,-100.00,South,171,6.0,-999.0,0,-99.99,,,-99.99,,2013-05-29 01:42:00,
2013-05-28 20:52:00,69.0,-99.9,-100.00,South,171,6.0,-999.0,0,-99.99,,,-99.99,,2013-05-29 01:52:00,
2013-05-28 21:02:00,68.0,-99.9,-100.00,South,178,4.0,-999.0,0,-99.99,,,-99.99,,2013-05-29 02:02:00,
2013-05-28 21:12:00,67.0,-99.9,-100.00,SSE,168,6.0,-999.0,0,-99.99,,,-99.99,,2013-05-29 02:12:00,
2013-05-28 21:22:00,67.0,-99.9,-100.00,South,181,8.0,-999.0,0,-99.99,,,-99.99,,2013-05-29 02:22:00,
2013-05-28 21:32:00,66.0,-99.9,-100.00,SSE,159,8.0,-999.0,0,-99.99,,,-99.99,,2013-05-29 02:32:00,
2013-05-28 21:42:00,66.0,-99.9,-100.00,South,177,8.0,-999.0,0,-99.99,,,-99.99,,2013-05-29 02:42:00,
2013-05-28 21:52:00,66.0,-99.9,-100.00,South,177,8.0,-999.0,0,-99.99,,,-99.99,,2013-05-29 02:52:00,
2013-05-28 22:02:00,65.0,-99.9,-100.00,SSE,152,7.0,-999.0,0,-99.99,,,-99.99,,2013-05-29 03:02:00,
2013-05-28 22:12:00,65.0,-99.9,-100.00,SSE,167,6.0,-999.0,0,-99.99,,,-99.99,,2013-05-29 03:12:00,
2013-05-28 22:22:00,64.0,-99.9,-100.00,SSE,160,6.0,-999.0,0,-99.99,,,-99.99,,2013-05-29 03:22:00,
2013-05-28 22:33:00,65.0,-99.9,-100.00,South,187,10.0,-999.0,0,-99.99,,,-99.99,,2013-05-29 03:33:00,
2013-05-28 22:43:00,64.0,-99.9,-100.00,SSW,193,9.0,-999.0,0,-99.99,,,-99.99,,2013-05-29 03:43:00,
2013-05-28 22:53:00,64.0,-99.9,-100.00,South,174,9.0,-999.0,0,-99.99,,,-99.99,,2013-05-29 03:53:00,
2013-05-28 23:03:00,64.0,-99.9,-100.00,South,171,11.0,-999.0,0,-99.99,,,-99.99,,2013-05-29 04:03:00,
2013-05-28 23:13:00,63.0,-99.9,-100.00,South,175,11.0,-999.0,0,-99.99,,,-99.99,,2013-05-29 04:13:00,
2013-05-28 23:23:00,63.0,-99.9,-100.00,South,189,7.0,-999.0,0,-99.99,,,-99.99,,2013-05-29 04:23:00,
2013-05-28 23:33:00,63.0,-99.9,-100.00,South,190,5.0,-999.0,0,-99.99,,,-99.99,,2013-05-29 04:33:00,
2013-05-28 23:42:00,63.0,-99.9,-100.00,SSE,161,1.0,-999.0,0,-99.99,,,-99.99,,2013-05-29 04:42:00,
2013-05-28 23:53:00,63.0,-99.9,-100.00,South,184,6.0,-999.0,0,-99.99,,,-99.99,,2013-05-29 04:53:00,